{"data":{"norad_id":67804,"epoch":"2026-09-18T22:48:04.759776Z","epoch_age_seconds":200310,"freshness":"STALE","line1":"1 67804U 26032H   26261.95005509  .00011034  00000+0  34354-3 0  9998","line2":"2 67804  97.2855  88.3143 0001325  60.5251 299.6124 15.33450093 34575","mean_motion":15.33450093,"eccentricity":0.0001325,"inclination_deg":97.2855,"raan_deg":88.3143,"arg_perigee_deg":60.5251,"mean_anomaly_deg":299.6124,"bstar":0.00034354,"rev_number":3457,"period_min":93.905892769084,"perigee_km":464.62123571997,"apogee_km":466.43480695063,"semimajor_km":6843.6650213353,"source":"CELESTRAK","updated_at":"2026-09-20T09:00:43.663141Z"}}